Regional Weather Roundup
Issued by NWS

Home | Current Version | Previous Version | Text Only | Print | Product List | Glossary Off
Versions: 1 2 3 4 5 6 7 8 9 10 11 12 13 14 15 16 17 18 19 20 21 22 23 24 25 26 27 28 29 30 31 32 33 34 35 36 37 38 39 40 41 42 43 44 45 46 47 48 49 50

000
ASUS45 KSLC 250110
RWRUT

UTAH REGIONAL WEATHER ROUNDUP
NATIONAL WEATHER SERVICE SALT LAKE CITY UT
700 PM MDT SAT JUN 24 2017

UTZ001>011-023>025-250200-

NORTHERN UTAH

CITY           SKY/WX    TMP DP  RH WIND       PRES   REMARKS
BRIGHAM CITY   SUNNY     85  24  11 S6        30.14S
HILL AFB       SUNNY     82  34  17 N6        30.17F
LOGAN          SUNNY     86  34  15 N6        30.14F
OGDEN          SUNNY     84  31  14 CALM      30.14F
SALT LAKE CITY SUNNY     88  18   7 NW9       30.12F
TOOELE VALLEY  SUNNY     82  34  17 N8        30.15S
WENDOVER         N/A     89  24   9 SE9       30.12F
HEBER CITY     SUNNY     82  27  13 N10       30.19S
WEST JORDAN    SUNNY     83  44  24 NW9       30.16S

$$

UTZ011>015-024>027-250200-

CENTRAL/NORTHEAST UTAH

CITY           SKY/WX    TMP DP  RH WIND       PRES   REMARKS
PROVO AIRPORT  SUNNY     85  40  20 NW13      30.14S
MOAB/CANYONLAN SUNNY     96   8   4 N6        30.01F
DELTA          SUNNY     90  16   6 NW9       30.12F
PRICE          SUNNY     86  14   7 NW16G22   30.18S
RICHFIELD      SUNNY     90  23   9 N8        30.15S
VERNAL         SUNNY     86  28  12 E5        30.15F

$$

UTZ013>016-019>022-027-250200-

SOUTHERN UTAH

CITY           SKY/WX    TMP DP  RH WIND       PRES   REMARKS
BRYCE CANYON   PTSUNNY   81  16   9 NW16G26   30.31S
CEDAR CITY     SUNNY     91  19   7 N9        30.14S
MILFORD        SUNNY     92  19   7 N17       30.11S
ST GEORGE      CLEAR    108  26   6 W8        29.83F HX 100
HANKSVILLE     SUNNY     97  18   5 E12       30.02F HX  90
KANAB          SUNNY     97  27   8 NW9       30.06F HX  90
BLANDING       SUNNY     87  26  11 N17       30.20R

$$

REGIONAL REPORTS     COLORADO/ARIZONA

CITY           SKY/WX    TMP DP  RH WIND       PRES   REMARKS
CRAIG, CO      SUNNY     78  20  11 N8        30.26S
GRAND JUNCTION SUNNY     91  23   8 W13       30.07S
RIFLE, CO      SUNNY     85  23  10 N12       30.16S
MONTROSE, CO   SUNNY     87  19   8 NW12      30.14S
CORTEZ, CO     SUNNY     90   3   4 N12G24    30.12R
COLORADO CITY    N/A    100  30   8 N7        30.05F HX  94
PAGE, AZ       SUNNY    103  21   5 N5        29.94F HX  95
GRAND CANYON   MOSUNNY   91  21   8 N7        30.19F
KINGMAN, AZ    MOSUNNY  108  33   7 N8        29.88R HX 101
FLAGSTAFF, AZ  PTSUNNY   87  22   9 W9        30.21F

$$

REGIONAL REPORTS    NEVADA/IDAHO/WYOMING

CITY           SKY/WX    TMP DP  RH WIND       PRES   REMARKS
LAS VEGAS, NV  MOSUNNY  111   8   2 VRB3      29.76F HX 101
ELY, NY        MOSUNNY   89  33  13 N9        30.20F
ELKO, NV       MOSUNNY   90  18   7 CALM      30.15F
POCATELLO, ID  MOSUNNY   83  34  17 CALM      30.18F
BURLEY, ID     SUNNY     80  38  22 W6        30.14F
FORT BRIDGER,    N/A     78  25  14 W9G18     30.34S
EVANSTON, WY   SUNNY     75  35  23 W10       30.32S
ROCK SPRINGS,  SUNNY     74  24  15 S3        30.30S
KEMMERER, WY     N/A    N/A N/A N/A NW13      30.34S

$$



USA.gov is the U.S. government's official web portal to all federal, state and local government web resources and services.